パンスターズ彗星

C/2017 E3 ( PanSTARRS )

English version
Home page
Updated on September 23, 2018

---------------------------------------------------------------------

・ プロフィール

発見日 2017年3月7日
発見光度 19.2等
発見者 Pan-STARRS 1 telescope (Haleakala)

・ 写真集

・ 軌道要素

Epoch 2017 June 16.0 TT = JDT 2457920.5
T 2017 May 31.56568 TT                                  MPCW
q   5.9152569            (2000.0)            P               Q
z  -0.0008430      Peri.  333.66301     -0.77474187     -0.14232774
 +/-0.0000010      Node   220.75856     -0.26822084     -0.80833925
e   1.0049865      Incl.   70.66503     -0.57256670     +0.57125343
From 402 observations 2017 Mar. 7-2018 Aug. 11, mean residual 0".5.

・ 光度変化

        m1 = 5.0 + 5 logΔ + 10.0 log r

---------------------------------------------------------------------

軌道要素はM.P.E.C. 2018-S50に掲載されたものです。
光度グラフはComet for Windowsで作成したものです。

---------------------------------------------------------------------

Copyright(C) Seiichi Yoshida (comet@aerith.net). All rights reserved.